[[{"header":{"parameterUnit":"m.s-1","parameterCategory":1,"la1":30.2991,"la2":30.254,"lo1":-89.0895,"lo2":-89.0444,"dy":0.0017,"dx":0.0017,"nx":28,"ny":28,"refTime":"2023-08-27T09:00:00:Z","depth":0,"parameterNumber":2,"parameterNumberName":"U-component_of_WINDS"},"data":[0,0,0,0,0,0,0,0,0,0,0,0,0,0,0,0,0,0,0,0,0,0,0,0,0,0,0,0,0,0,0,0,0,0,0,0,0,0,0,0,0,0,0,0,0,0,0,0,0,0,0,0,0,0,0,0,0,0,-2.6116,-2.6116,0,-2.6088,-2.6087,-2.6087,-2.6047,-2.6046,-2.6046,-2.6045,-2.6015,-2.6015,-2.6015,0,0,0,0,0,0,0,0,0,0,0,0,0,-2.6135,-2.6135,-2.6116,-2.6116,-2.6115,-2.6088,-2.6087,-2.6087,-2.6047,-2.6046,-2.6045,-2.6045,-2.6015,-2.6015,-2.6015,0,0,0,0,0,0,0,0,0,0,0,0,0,-2.6119,-2.6135,-2.6116,-2.6092,-2.609,-2.6088,-2.6087,-2.6087,-2.6047,-2.6046,-2.6045,-2.6044,-2.6015,-2.6015,-2.6015,-2.6034,0,0,-2.6014,-2.6014,0,0,0,0,0,0,0,0,-2.612,-2.6118,-2.6096,-2.6094,-2.6091,-2.607,-2.6083,-2.6069,-2.6048,-2.6063,-2.6045,-2.6044,-2.6034,-2.6032,-2.6029,-2.6032,-2.6031,-2.6014,-2.6014,-2.6014,-2.6013,0,0,0,0,0,0,0,-2.6121,-2.6119,-2.6105,-2.6096,-2.6093,-2.6083,-2.6079,-2.608,-2.6055,-2.6062,-2.6059,-2.6056,-2.6032,-2.6029,-2.6028,-2.603,-2.6014,-2.6014,-2.6013,-2.6013,-2.6048,-2.6049,0,0,0,0,0,0,-2.6126,-2.612,-2.6106,-2.6104,-2.6103,-2.6083,-2.6079,-2.6078,-2.6055,-2.605,-2.6057,-2.6054,-2.603,-2.6028,-2.6027,-2.6047,-2.6014,-2.6013,-2.6013,-2.6047,-2.6048,-2.6049,0,0,0,0,0,0,-2.6126,-2.6125,-2.6107,-2.6111,-2.6108,-2.6084,-2.6082,-2.6078,-2.6075,-2.6051,-2.6046,-2.6059,-2.6029,-2.6027,-2.6032,-2.6046,-2.6013,-2.6013,-2.6045,-2.6047,-2.6048,-2.6088,0,0,0,0,0,0,-2.6127,-2.6125,-2.6132,-2.6112,-2.6108,-2.6113,-2.6083,-2.6078,-2.6074,-2.6071,-2.6051,-2.6047,-2.6028,-2.6033,-2.6032,-2.6045,-2.6013,-2.6044,-2.6046,-2.6048,-2.6086,-2.6091,-2.6096,0,0,0,0,0,-2.6128,-2.6145,-2.6133,-2.6131,-2.6117,-2.6114,-2.6112,-2.609,-2.6076,-2.6082,-2.6067,-2.6048,-2.6045,-2.6034,-2.6032,-2.6045,-2.6043,-2.6045,-2.6048,-2.6083,-2.609,-2.6096,0,0,0,0,0,0,-2.6167,-2.6141,-2.6128,-2.6139,-2.6129,-2.6107,-2.6115,-2.6098,-2.6092,-2.6089,-2.6062,-2.6058,-2.6066,-2.6056,-2.6045,-2.6062,-2.6041,-2.6043,-2.6068,-2.6074,-2.6079,-2.6081,-2.6013,0,0,0,0,0,-2.6177,-2.6177,-2.6155,-2.6166,-2.6162,-2.614,-2.6138,-2.6122,-2.611,-2.6106,-2.6091,-2.6081,-2.6077,-2.6075,-2.6071,-2.6084,-2.6079,-2.6093,-2.6098,-2.6102,-2.6104,-2.611,-2.6115,-2.6057,-2.6057,-2.6057,0,0,-2.6197,-2.6183,-2.6185,-2.6174,-2.6164,-2.6165,-2.6136,-2.6138,-2.6138,-2.6106,-2.611,-2.6099,-2.6085,-2.6095,-2.6098,-2.6087,-2.6119,-2.6105,-2.6108,-2.6108,-2.6113,-2.6118,-2.6123,-2.6058,-2.6058,-2.6058,0,0,-2.6234,-2.6224,-2.6232,-2.6223,-2.6209,-2.6195,-2.6197,-2.6178,-2.6169,-2.6173,-2.6149,-2.6149,-2.6143,-2.6135,-2.6129,-2.6164,-2.6145,-2.6163,-2.6189,-2.6195,-2.62,-2.6204,-2.6216,-2.622,-2.6166,-2.6166,-2.6166,0,-2.6261,-2.6261,-2.6239,-2.6242,-2.6237,-2.6209,-2.6217,-2.621,-2.6195,-2.6193,-2.618,-2.6173,-2.6162,-2.6169,-2.6178,-2.6175,-2.6176,-2.6165,-2.6201,-2.6205,-2.6208,-2.6219,-2.6224,-2.6168,-2.6168,-2.6167,-2.6167,0,-2.6294,-2.6295,-2.6303,-2.629,-2.6287,-2.6292,-2.6271,-2.627,-2.6255,-2.6242,-2.6246,-2.6231,-2.6224,-2.6224,-2.621,-2.6229,-2.6222,-2.6206,-2.6184,-2.6216,-2.6226,-2.623,-2.6171,-2.617,-2.617,-2.6169,0,0,-2.6354,-2.6329,-2.6332,-2.6326,-2.6309,-2.6309,-2.6313,-2.6306,-2.6306,-2.6297,-2.63,-2.6296,-2.6281,-2.6276,-2.626,-2.6265,-2.6293,-2.6248,-2.6247,-2.6256,-2.6313,-2.6325,-2.633,-2.6281,-2.6282,-2.6282,-2.6314,0,-2.6387,-2.6394,-2.6374,-2.6385,-2.6385,-2.6359,-2.6362,-2.6352,-2.634,-2.6338,-2.6324,-2.6322,-2.6303,-2.6299,-2.6303,-2.6289,-2.6304,-2.6286,-2.6283,-2.6283,-2.6286,-2.6335,-2.6348,-2.6378,-2.6318,-2.6318,-2.6319,0,-2.6427,-2.642,-2.6431,-2.6414,-2.6413,-2.6417,-2.6408,-2.6407,-2.6395,-2.6386,-2.638,-2.6362,-2.6364,-2.6344,-2.6347,-2.6336,-2.6334,-2.6326,-2.6327,-2.6325,-2.6302,-2.6334,-2.6387,-2.6392,-2.6325,-2.6324,-2.6324,0,-2.6468,-2.6462,-2.6468,-2.6464,-2.6444,-2.6447,-2.6438,-2.6426,-2.6422,-2.6415,-2.6413,-2.6406,-2.6403,-2.6398,-2.6378,-2.6365,-2.6384,-2.6362,-2.6376,-2.6376,-2.638,-2.638,-2.6433,-2.638,-2.638,-2.638,-2.638,0,-2.6507,-2.6515,-2.6487,-2.649,-2.6498,-2.6476,-2.6484,-2.6473,-2.6462,-2.6463,-2.644,-2.6441,-2.6416,-2.6414,-2.6399,-2.6404,-2.6402,-2.6394,-2.639,-2.6396,-2.6397,-2.6393,-2.639,-2.6381,-2.6381,-2.638,-2.638,0,-2.6555,-2.6536,-2.6541,-2.6522,-2.6517,-2.6524,-2.6507,-2.6509,-2.6496,-2.6497,-2.6496,-2.6475,-2.6472,-2.6452,-2.6444,-2.6434,-2.6444,-2.6436,-2.6448,-2.6445,-2.646,-2.6459,-2.6512,-2.6518,-2.6462,-2.6463,-2.6463,0,-2.658,-2.6586,-2.6567,-2.6566,-2.6559,-2.6557,-2.6554,-2.6532,-2.653,-2.6517,-2.6521,-2.6516,-2.6511,-2.6507,-2.6491,-2.6485,-2.6476,-2.6495,-2.6475,-2.648,-2.6475,-2.6475,-2.6475,-2.6499,-2.65,-2.65,-2.6501,0,-2.6627,-2.6618,-2.6614,-2.6608,-2.6605,-2.6598,-2.6591,-2.6591,-2.6567,-2.6565,-2.6562,-2.6558,-2.655,-2.6546,-2.6537,-2.6528,-2.651,-2.6508,-2.651,-2.6516,-2.6522,-2.6518,-2.6459,-2.6506,-2.6506,-2.6505,-2.6505,-2.6505,-2.6664,-2.6668,-2.6655,-2.6652,-2.6644,-2.6637,-2.6638,-2.6625,-2.6622,-2.6614,-2.6602,-2.66,-2.6588,-2.6574,-2.6567,-2.6565,-2.6555,-2.6559,-2.656,-2.6561,-2.6564,-2.6524,-2.6564,-2.6564,-2.6563,-2.6563,-2.6563,0,-2.671,-2.67,-2.6698,-2.6687,-2.6685,-2.6669,-2.666,-2.6658,-2.6657,-2.6648,-2.6643,-2.664,-2.6635,-2.6619,-2.6612,-2.6614,-2.6606,-2.6613,-2.6612,-2.661,-2.6574,-2.6572,-2.662,-2.662,-2.662,-2.662,-2.662,-2.662,-2.6733,-2.6738,-2.6727,-2.6728,-2.6718,-2.6717,-2.6713,-2.6706,-2.6698,-2.6695,-2.6691,-2.6681,-2.6668,-2.6661,-2.6656,-2.6651,-2.665,-2.666,-2.6652,-2.6618,-2.6613,-2.6608,-2.6605,-2.666,-2.666,-2.6688,-2.6689,-2.6689]},{"header":{"parameterUnit":"m.s-1","parameterCategory":1,"la1":30.2991,"la2":30.254,"lo1":-89.0895,"lo2":-89.0444,"dy":0.0017,"dx":0.0017,"nx":28,"ny":28,"refTime":"2023-08-27T09:00:00:Z","depth":0,"parameterNumber":3,"parameterNumberName":"V-component_of_WINDS"},"data":[0,0,0,0,0,0,0,0,0,0,0,0,0,0,0,0,0,0,0,0,0,0,0,0,0,0,0,0,0,0,0,0,0,0,0,0,0,0,0,0,0,0,0,0,0,0,0,0,0,0,0,0,0,0,0,0,0,0,5.3592,5.3592,0,5.3557,5.3556,5.3556,5.3463,5.3461,5.3459,5.3457,5.3423,5.3423,5.3424,0,0,0,0,0,0,0,0,0,0,0,0,0,5.3581,5.3581,5.3592,5.3592,5.3591,5.3557,5.3556,5.3556,5.3463,5.3461,5.3459,5.3456,5.3422,5.3423,5.3424,0,0,0,0,0,0,0,0,0,0,0,0,0,5.357,5.3582,5.3592,5.3541,5.3536,5.3557,5.3556,5.3556,5.3464,5.3461,5.3458,5.3455,5.3422,5.3423,5.3425,5.3493,0,0,5.3429,5.3429,0,0,0,0,0,0,0,0,5.357,5.357,5.3549,5.3545,5.3539,5.3511,5.3539,5.3535,5.3465,5.3491,5.3457,5.3454,5.3455,5.3453,5.3453,5.3491,5.349,5.3429,5.343,5.343,5.3431,0,0,0,0,0,0,0,5.3571,5.3571,5.3578,5.3549,5.3543,5.352,5.3515,5.3538,5.349,5.3489,5.3482,5.3479,5.3451,5.3452,5.3451,5.3489,5.3429,5.343,5.3431,5.3431,5.358,5.3582,0,0,0,0,0,0,5.3579,5.3572,5.3579,5.3577,5.3548,5.3523,5.3517,5.3523,5.349,5.3482,5.3482,5.3475,5.3451,5.345,5.345,5.3526,5.343,5.3432,5.3432,5.3576,5.358,5.3584,0,0,0,0,0,0,5.3579,5.3581,5.3581,5.3573,5.3571,5.3526,5.3533,5.3524,5.3524,5.3484,5.3475,5.3491,5.3449,5.3448,5.3482,5.3523,5.3432,5.3434,5.3573,5.3578,5.3582,5.368,0,0,0,0,0,0,5.3579,5.3581,5.3606,5.3574,5.3572,5.3614,5.3536,5.3525,5.3527,5.3518,5.349,5.3483,5.3446,5.3481,5.3484,5.3524,5.3435,5.3569,5.3575,5.358,5.3673,5.3687,5.37,0,0,0,0,0,5.3579,5.3636,5.3608,5.361,5.3602,5.3616,5.3615,5.3571,5.3531,5.3556,5.3529,5.3484,5.3519,5.3485,5.3488,5.3529,5.3566,5.3573,5.358,5.3666,5.3684,5.3699,0,0,0,0,0,0,5.3675,5.3631,5.36,5.3648,5.3636,5.36,5.3631,5.3591,5.3592,5.3583,5.3529,5.3523,5.3565,5.355,5.3513,5.3592,5.3535,5.3543,5.36,5.3616,5.363,5.3632,5.3436,0,0,0,0,0,5.3702,5.3717,5.3677,5.3723,5.3719,5.3676,5.3681,5.3648,5.3634,5.3629,5.3605,5.3594,5.3602,5.3609,5.3614,5.367,5.3662,5.37,5.3713,5.3725,5.3732,5.3759,5.3775,5.3606,5.3606,5.3606,0,0,5.3758,5.3735,5.3748,5.3742,5.3729,5.3745,5.3673,5.3693,5.3705,5.3632,5.3662,5.3645,5.3629,5.3674,5.3693,5.3663,5.3777,5.3734,5.3743,5.3744,5.3768,5.3784,5.3798,5.3611,5.361,5.361,0,0,5.3866,5.3851,5.3887,5.3876,5.3857,5.3828,5.3837,5.3807,5.3792,5.3822,5.3767,5.378,5.3796,5.3786,5.3783,5.3888,5.3846,5.3892,5.3962,5.3989,5.4002,5.4014,5.405,5.4063,5.3899,5.3899,5.3899,0,5.3937,5.3959,5.3911,5.3934,5.3933,5.3868,5.3903,5.3895,5.388,5.388,5.3848,5.3865,5.3849,5.3891,5.3916,5.3917,5.3924,5.3894,5.4004,5.4015,5.4025,5.4059,5.4073,5.3905,5.3904,5.3904,5.3903,0,5.4047,5.4063,5.4094,5.408,5.4083,5.4113,5.4069,5.4077,5.4044,5.4019,5.4049,5.4028,5.4028,5.4036,5.4004,5.4072,5.4054,5.4014,5.3955,5.4048,5.4078,5.4091,5.3913,5.3911,5.3909,5.3908,0,0,5.4215,5.4173,5.4185,5.4177,5.4152,5.4163,5.419,5.4189,5.4197,5.4189,5.4209,5.4223,5.4185,5.4182,5.4149,5.4173,5.4256,5.4129,5.4128,5.4152,5.4328,5.4358,5.4374,5.4228,5.423,5.4232,5.4329,0,5.4316,5.4358,5.4315,5.4367,5.438,5.4318,5.4341,5.4328,5.4305,5.4314,5.4288,5.4299,5.4249,5.4246,5.4267,5.4241,5.429,5.4234,5.4246,5.4247,5.425,5.439,5.4421,5.4514,5.4341,5.4343,5.4344,0,5.444,5.4436,5.4488,5.4458,5.4462,5.4484,5.4479,5.4488,5.4472,5.4453,5.445,5.4409,5.4433,5.4377,5.4409,5.4371,5.4374,5.4362,5.4364,5.4363,5.4301,5.4391,5.4542,5.4556,5.4363,5.4362,5.436,0,5.4555,5.4563,5.4595,5.4591,5.4557,5.4573,5.456,5.4541,5.4543,5.4539,5.4539,5.4538,5.4538,5.4538,5.4498,5.4461,5.4535,5.4475,5.4519,5.452,5.4537,5.4536,5.469,5.4541,5.4541,5.4541,5.454,0,5.4671,5.4706,5.4646,5.4666,5.4702,5.4653,5.469,5.467,5.4654,5.4668,5.4615,5.463,5.4577,5.4587,5.4556,5.4586,5.4587,5.4572,5.4563,5.4576,5.4578,5.4576,5.4568,5.4544,5.4543,5.4543,5.4542,0,5.4806,5.4768,5.4798,5.4763,5.4755,5.4784,5.4754,5.4771,5.4744,5.4763,5.4765,5.4723,5.4731,5.4692,5.4694,5.4673,5.4718,5.4699,5.4723,5.4717,5.4763,5.4758,5.4919,5.4938,5.4779,5.4781,5.4782,0,5.4882,5.4907,5.4874,5.488,5.4869,5.4879,5.488,5.4833,5.4836,5.4819,5.4838,5.4842,5.4842,5.4858,5.4828,5.4829,5.4808,5.4865,5.4808,5.482,5.4808,5.4806,5.4808,5.4876,5.4878,5.488,5.4881,0,5.5021,5.5001,5.5004,5.5001,5.5003,5.4999,5.499,5.4998,5.4947,5.4953,5.496,5.4961,5.4962,5.4966,5.496,5.4947,5.4906,5.49,5.4909,5.4922,5.4934,5.4927,5.4754,5.4896,5.4894,5.4893,5.4892,5.4892,5.5128,5.5146,5.5126,5.5131,5.512,5.5113,5.5126,5.5101,5.5106,5.5103,5.5075,5.5087,5.507,5.5058,5.5048,5.5057,5.503,5.5045,5.5049,5.5053,5.506,5.4934,5.5056,5.5056,5.5055,5.5055,5.5055,0,5.5262,5.5246,5.5252,5.5241,5.5245,5.5206,5.5195,5.5201,5.5212,5.5199,5.52,5.5208,5.5211,5.5182,5.5181,5.5194,5.5175,5.5196,5.5193,5.5191,5.5085,5.5076,5.5211,5.5211,5.5211,5.5211,5.5211,5.5211,5.5333,5.5362,5.5339,5.5361,5.5345,5.5356,5.5352,5.5346,5.5335,5.5346,5.5348,5.5329,5.5309,5.5306,5.5308,5.5299,5.5301,5.5327,5.5312,5.5214,5.5198,5.5184,5.5175,5.5329,5.5329,5.5417,5.5418,5.5418]}]]